Weather in Strugovka

Russia / Primorsky Krai     43°59′53″N   131°40′07″E
temp.,
°C
wind,
m/s
gust,
m/s
humid.,
%
clouds,
%
prec.,
mm/h
press.,
hPa
HPBL,
m
6 may, thu
thu601:00+8s477757 0.1 1004130
04:00+7s59824 0.1 1004142
07:00+7s48760 0.0 1005132
10:00+16ssw48415 0.0 10051058
13:00+21sw4102813 0.0 10042575
16:00+20sse8943100 0.0 1002467
19:00+12sse914683 0.2 1002300
22:00+10sse6107757 0.4 1005211
7 may, fri
fri701:00+9s512840 0.0 1005271
04:00+9s612860 0.0 1004291
07:00+9s513875 0.0 1002410
10:00+13s91563100 0.0 999833
13:00+13sse71167100 0.0 996649
16:00+12s81677100 0.6 9911234
19:00+10s9128694 0.4 989609
22:00+9s61290100 1.9 990672
8 may, sat
sat801:00+10sw71377100 4.4 988845
04:00+9wsw61376100 4.4 990682
07:00+9sw51079100 0.0 993462
10:00+14ssw5855100 0.0 9931379
13:00+14s5858100 3.2 9911034
16:00+12sse6881100 4.5 989584
19:00+11nw258089 1.9 988673
22:00+8w61086100 2.6 9901084
9 may, sun
sun901:00+6w71491100 4.1 992954
04:00+6wnw81587100 6.4 9941174
07:00+7nw8147899 0.3 9961153
10:00+10nw91362100 0.1 9981525
13:00+12nw81252100 0.0 9992178
16:00+14nw71245100 0.0 10002376
19:00+13nw712485 0.0 10021369
22:00+9wnw35605 0.0 100463
10 may, mon
mon1001:00+7w22665 0.0 100619
04:00+6wsw33691 0.0 100640
07:00+6w237114 0.0 100866
10:00+13nw3646100 0.0 10081162
13:00+18wnw483250 0.0 10072676
16:00+17wsw664485 0.0 10071328
19:00+16sw245698 0.0 1008138
22:00+11ssw3680100 1.1 1010211